Regional Weather Roundup
Issued by NWS

Home | Current Version | Previous Version | Graphics & Text | Print | Product List | Glossary On
Versions: 1 2 3 4 5 6 7 8 9 10 11 12 13 14 15 16 17 18 19 20 21 22 23 24 25 26 27 28 29 30 31 32 33 34 35 36 37 38 39 40 41 42 43 44 45 46 47 48 49 50
000
ASUS43 KLSX 230307
RWRMO

WEATHER SUMMARY FOR MISSOURI
NATIONAL WEATHER SERVICE SPRINGFIELD MO
1000 PM CDT MON MAY 22 2017

NOTE: "FAIR" INDICATES FEW OR NO CLOUDS BELOW 12,000 FEET WITH NO
       SIGNIFICANT WEATHER AND/OR OBSTRUCTIONS TO VISIBILITY.
       CURRENT SKY AND/OR WEATHER CONDITIONS ARE NOT AVAILABLE FOR
       CHILLICOTHE AND FARMINGTON.

MOZ001>031-035>038-043-044-053-054-230400-
...NORTHERN AND WESTERN MISSOURI...

CITY           SKY/WX    TMP DP  RH WIND       PRES   REMARKS
KANSAS CTY INT CLOUDY    58  57  97 CALM      29.93R
KANSAS C DTWN  CLOUDY    59  58  96 E5        29.92R
LEE`S SUMMIT   LGT RAIN  57  57 100 CALM      29.96R
ST JOSEPH      PTCLDY    57  57 100 S8        29.91F
CHILLICOTHE      N/A     57  56  96 S3        29.93F
KIRKSVILLE     LGT RAIN  56  55  97 S8        29.93F

$$
MOZ066>068-077>081-088>096-101>105-230400-
...SOUTHWEST MISSOURI...

CITY           SKY/WX    TMP DP  RH WIND       PRES   REMARKS
SPRINGFIELD    CLOUDY    66  51  58 S7        29.93R
JOPLIN         CLOUDY    65  57  75 S5        29.92S
BRANSON        PTCLDY    63  50  63 SE7       29.95S

$$
MOZ032>034-039>042-045>050-055>058-069>072-230400-
...CENTRAL MISSOURI...

CITY           SKY/WX    TMP DP  RH WIND       PRES   REMARKS
COLUMBIA       CLOUDY    58  54  86 NE8       29.95F
JEFFERSON CITY CLOUDY    63  53  70 NE7       29.94F
ROLLA          CLOUDY    62  54  74 SE6       29.93F
SEDALIA        MOCLDY    58  57  97 E6        29.94F
WHITEMAN AFB   CLOUDY    58  58 100 E5        29.91F
WARRENSBURG    RAIN      55  54  94 N5        29.94R
OSAGE BEACH    CLOUDY    65  57  75 SE3       29.93F

$$
MOZ051-052-059>065-230400-
...EAST CENTRAL MISSOURI...

CITY           SKY/WX    TMP DP  RH WIND       PRES   REMARKS
ST LOUIS INTL  CLOUDY    72  48  42 S7        29.95R
SPIRIT OF STL  PTCLDY    65  57  75 CALM      29.93S
ST CHARLES     CLOUDY    65  57  75 NE5       29.94R

$$
MOZ072>076-082>087-097>100-106>115-230400-
...SOUTH CENTRAL AND SOUTHEAST MISSOURI...

CITY           SKY/WX    TMP DP  RH WIND       PRES   REMARKS
CAPE GIRARDEAU CLEAR     61  54  77 SE5       29.94F
FARMINGTON     MOCLDY    63  54  72 CALM      29.97S
POPLAR BLUFF   CLEAR     65  59  81 CALM      29.94F
WEST PLAINS    CLOUDY    63  52  67 CALM      29.96F

$$



USA.gov is the U.S. government's official web portal to all federal, state and local government web resources and services.